Location: Campestrin
(46.4667°N, 11.7167°E)
Time: 10:35:10
(UTC+00:00)

USA 215 - Pass Details

Date: 18 April 2021
Orbit: 1101 x 1107 km, 123.0° (Epoch: 05 May)

Event Time Altitude Azimuth Distance (km) Brightness Sun altitude
Exits shadow 18:58:19 - 98° (E) 3,020 5.0 -9.3°
Reaches altitude 10° 18:58:29 10° 98° (E) 2,957 4.9 -9.3°
Maximum altitude 19:04:46 53° 24° (NNE) 1,336 3.8 -10.3°
Drops below altitude 10° 19:11:04 10° 310° (NW) 2,965 7.0 -11.2°
Sets 19:13:36 0° 306° (NW) 3,925 8.3 -11.6°
